Lid_Strength_Index
2 2 2 1 1 2 2 3 5 7 7 6 7 7 7 7 7 6 7 7 7 6 6 5 4 4 4 4 4 4 5 6 7 7 8 8 9 9
1 1 2 1 1 2 2 3 3 4 6 5 7 8 8 9 8 8 8 8 9 8 8 7 6 5 6 6 7 7 8 8 9 9 10 10 11 11
1 1 2 1 1 1 2 3 3 4 6 8 9 9 10 10 11 11 10 10 9 9 9 8 8 8 9 9 9 9 10 10 11 11 12 12 12 12
2 2 2 1 2 2 2 3 4 4 5 8 10 11 12 12 12 13 12 12 12 10 10 10 10 10 11 11 12 12 12 13 13 13 13 13 13 13
1 2 2 2 2 2 2 2 3 3 4 8 10 11 13 13 14 14 14 14 12 11 11 11 11 12 12 12 13 14 14 14 15 15 14 15 14 13
2 2 1 1 2 2 2 2 3 4 4 7 9 11 12 13 13 15 16 15 15 14 12 12 12 12 13 14 14 14 15 15 15 15 15 15 15 15
3 3 3 3 5 4 2 2 2 4 5 7 10 13 14 14 14 15 16 17 17 16 16 15 14 14 14 14 14 14 15 15 15 15 15 15 16 16
4 3 3 6 6 9 9 8 5 4 6 8 9 11 13 13 14 15 17 17 18 16 16 17 16 16 15 14 14 14 15 15 15 15 16 16 16 16
5 6 7 9 9 11 13 12 12 10 8 7 9 10 13 12 13 15 16 15 17 17 17 19 17 18 15 14 15 14 15 16 16 16 16 16 16 15
7 7 10 12 13 14 15 15 16 15 14 12 8 10 10 11 12 12 14 17 17 17 17 20 18 18 16 15 14 15 16 15 15 15 15 15 15 15
12 11 11 14 13 12 14 16 16 17 15 14 14 13 12 12 14 15 16 17 20 20 18 19 18 18 17 17 16 15 15 15 15 15 15 15 15 14
15 15 14 15 14 14 14 14 16 17 17 16 17 17 16 15 15 13 14 15 20 20 18 19 18 18 20 17 17 16 16 15 14 15 14 14 14 15
15 16 15 15 15 15 15 15 16 17 18 18 19 19 19 19 18 17 16 16 18 20 17 18 18 19 19 19 18 17 17 17 17 16 15 14 14 14
17 16 15 14 15 16 16 17 17 17 18 19 20 21 20 20 20 19 18 18 17 18 17 17 19 19 20 20 21 18 18 17 17 17 17 15 14 13
16 16 16 16 16 16 16 16 17 18 19 20 21 22 21 20 19 19 19 18 18 18 18 17 18 18 19 20 20 20 19 18 17 17 17 16 16 15
20 20 20 19 19 19 19 19 19 19 20 21 21 21 20 20 20 20 20 20 21 21 19 18 18 19 20 20 19 19 18 19 17 17 17 16 15 14
20 20 20 21 20 20 20 20 20 20 21 21 21 21 21 21 21 20 20 21 22 21 21 20 19 19 19 18 19 18 18 18 18 18 17 17 15 14
20 21 21 21 21 21 21 21 21 21 21 21 21 21 21 21 21 21 20 21 22 22 22 21 20 19 18 17 16 19 19 19 20 17 16 18 17 15
21 22 22 22 22 21 21 21 22 21 20 20 21 21 21 21 21 21 22 22 22 22 21 20 20 21 22 24 19 16 20 19 19 20 18 18 18 16
21 22 22 22 22 21 21 21 21 21 21 21 22 22 21 22 22 22 22 22 22 21 21 20 21 21 23 24 22 20 16 20 21 22 20 18 16 13
22 22 22 22 22 22 22 22 22 22 22 22 22 22 22 21 22 21 20 21 21 20 21 21 21 20 20 21 24 23 20 15 16 20 21 22 19 18
22 21 21 21 21 21 22 21 22 22 22 22 23 22 21 21 22 22 22 22 22 22 22 21 20 20 20 20 23 27 22 21 17 15 14 16 21 23
22 21 21 21 21 21 21 22 22 22 22 22 23 23 22 23 22 22 22 23 23 24 23 23 22 21 21 21 23 24 24 24 21 20 20 15 14 12